Satellite-Ground Cal/Val Site Overpasses Predictions

Prediction of Satellite NPP Overpassing Cal/Val Site: Antarctic Dome C

Ground Cal/Val Site Location: Latitude: -75.10, Longitude: 123.35; Satellite-Ground Site NADIR distance within 100 km.

Table of predicted overpasses for the next 14.0 days since TLE Epoch: 9/11/2021
Interval Starting Time Ending Time Minimum Distance Time Minimum Distance (km)
1 09/11/2021 14:43:07 09/11/2021 14:43:32 09/11/2021 14:43:19 46.72
2 09/12/2021 07:44:49 09/12/2021 07:45:09 09/12/2021 07:44:59 72.70
3 09/13/2021 07:25:57 09/13/2021 07:26:24 09/13/2021 07:26:10 35.11
4 09/16/2021 14:49:24 09/16/2021 14:49:53 09/16/2021 14:49:38 10.90
5 09/18/2021 07:32:14 09/18/2021 07:32:43 09/18/2021 07:32:28 2.48
6 09/21/2021 14:55:43 09/21/2021 14:56:11 09/21/2021 14:55:57 25.66
7 09/22/2021 14:36:59 09/22/2021 14:37:16 09/22/2021 14:37:07 81.55
8 09/23/2021 07:38:33 09/23/2021 07:39:00 09/23/2021 07:38:47 37.67
